This is the latest recevied weather packets stored in our database for station/object DW9280. If no packets are shown the sender has not sent any weather packets the latest 1 day(s).
| Time | Temp. | Humidity | Pressure | Rain* | Wind** | Luminosity | Snow |
|---|---|---|---|---|---|---|---|
| 1777957927 | 9.44° C | 90% | 1012.2 hPa | 0 mm | 1.79 m/s, 38° | 16 W/m² | - |
| 1777957628 | 9.44° C | 90% | 1012.1 hPa | 0 mm | 1.34 m/s, 39° | 14 W/m² | - |
| 1777957362 | 9.44° C | 90% | 1012.2 hPa | 0 mm | 1.79 m/s, 33° | 14 W/m² | - |
| 1777957152 | 9.44° C | 90% | 1012.1 hPa | 0 mm | 1.34 m/s, 44° | 11 W/m² | - |
| 1777956729 | 9.44° C | 90% | 1012.1 hPa | 0 mm | 1.34 m/s, 53° | 11 W/m² | - |
| 1777956429 | 9.44° C | 90% | 1012.2 hPa | 0 mm | 1.34 m/s, 30° | 7 W/m² | - |
| 1777956129 | 9.44° C | 90% | 1012.3 hPa | 0 mm | 1.34 m/s, 42° | 7 W/m² | - |
| 1777955953 | 9.44° C | 90% | 1012.3 hPa | 0 mm | 1.34 m/s, 62° | 5 W/m² | - |
| 1777955565 | 9.44° C | 90% | 1012.3 hPa | 0 mm | 1.34 m/s, 55° | 5 W/m² | - |
| 1777955352 | 9.44° C | 90% | 1012.3 hPa | 0 mm | 1.34 m/s, 42° | 0 W/m² | - |
| 1777954927 | 9.44° C | 90% | 1012.2 hPa | 0 mm | 1.34 m/s, 43° | 0 W/m² | - |
| 1777954627 | 9.44° C | 90% | 1012.2 hPa | 0 mm | 1.79 m/s, 68° | 0 W/m² | - |
| 1777954329 | 9.44° C | 90% | 1012.2 hPa | 0 mm | 1.79 m/s, 0° | 0 W/m² | - |
| 1777954028 | 9.44° C | 90% | 1012.3 hPa | 0 mm | 1.34 m/s, 44° | 0 W/m² | - |
| 1777953726 | 9.44° C | 90% | 1012.3 hPa | 0 mm | 0.89 m/s, 43° | 0 W/m² | - |
| 1777953426 | 9.44° C | 90% | 1012.4 hPa | 0 mm | 1.34 m/s, 31° | 0 W/m² | - |
| 1777953128 | 9.44° C | 90% | 1012.4 hPa | 0 mm | 1.34 m/s, 58° | 0 W/m² | - |
| 1777952826 | 9.44° C | 90% | 1012.2 hPa | 0 mm | 1.34 m/s, 40° | 0 W/m² | - |
| 1777952519 | 9.44° C | 90% | 1012.2 hPa | 0 mm | 1.34 m/s, 57° | 0 W/m² | - |
| 1777952217 | 9.44° C | 90% | 1012.3 hPa | 0 mm | 1.34 m/s, 46° | 0 W/m² | - |
| 1777951913 | 9.44° C | 90% | 1012.3 hPa | 0 mm | 1.34 m/s, 42° | 0 W/m² | - |
| 1777951613 | 10° C | 90% | 1012.2 hPa | 0 mm | 1.34 m/s, 59° | 0 W/m² | - |
| 1777951437 | 10° C | 90% | 1012.1 hPa | 0 mm | 1.79 m/s, 28° | 0 W/m² | - |
| 1777951011 | 10° C | 90% | 1012.1 hPa | 0 mm | 2.24 m/s, 26° | 0 W/m² | - |
| 1777950760 | 10° C | 90% | 1012.3 hPa | 0 mm | 1.34 m/s, 79° | 0 W/m² | - |
* Rain latest hour (hover to see other rain measurements)
** Current wind speed in m/s (hover to see current wind gust speed)